User: anonymous   Login
Location: Caltech
(34.1382°N, 118.1253°W)
Time: 10:29:52
(UTC-07:00)
Language:

ADEOS II - Orbit

View from above orbital plane
View from above orbital plane
View from above satellite
View from above satellite

Ground track
Ground track

The orbit data is extracted from the following two-line orbital elements,

1 27597U 02056A   17228.97127661  .00000039  00000-0  32791-4 0  9990
2 27597  98.3748 195.9689 0001877 112.9014 247.2366 14.27297942764092
Epoch (UTC): 16 August 2017 23:18:38
Eccentricity: 0.0001877
inclination: 98.3748°
perigee height: 799 km
apogee height: 802 km
right ascension of ascending node: 195.9689°
argument of perigee: 112.9014°
revolutions per day: 14.27297942
mean anomaly at epoch: 247.2366°
orbit number at epoch: 76409

The dashed part of the orbit path shows where the satellite is in the earth's shadow,  

DLR